TimeEST,TemperatureF,Dew PointF,Humidity,Sea Level PressureIn,VisibilityMPH,Wind Direction,Wind SpeedMPH,Gust SpeedMPH,PrecipitationIn,Events,Conditions,WindDirDegrees,DateUTC
12:53 AM,48.9,46.0,90,30.18,10.0,Calm,Calm,-,N/A,,Clear,0,2012-11-20 05:53:00
1:53 AM,48.9,46.9,93,30.17,10.0,Calm,Calm,-,N/A,,Mostly Cloudy,0,2012-11-20 06:53:00
2:53 AM,51.8,48.2,88,30.13,10.0,Calm,Calm,-,N/A,,Overcast,0,2012-11-20 07:53:00
3:53 AM,53.1,50.0,89,30.17,10.0,NNW,3.5,-,N/A,,Overcast,340,2012-11-20 08:53:00
4:53 AM,53.1,50.0,89,30.16,9.0,NNW,3.5,-,N/A,,Overcast,340,2012-11-20 09:53:00
5:53 AM,50.0,48.0,93,30.16,9.0,WNW,4.6,-,N/A,,Clear,300,2012-11-20 10:53:00
6:53 AM,51.1,48.9,92,30.18,8.0,Calm,Calm,-,N/A,,Mostly Cloudy,0,2012-11-20 11:53:00
7:53 AM,51.1,48.0,89,30.19,7.0,Calm,Calm,-,N/A,,Scattered Clouds,0,2012-11-20 12:53:00
8:53 AM,57.0,51.1,81,30.21,10.0,NW,5.8,-,N/A,,Mostly Cloudy,320,2012-11-20 13:53:00
9:53 AM,64.0,53.1,67,30.22,10.0,Calm,Calm,-,N/A,,Partly Cloudy,0,2012-11-20 14:53:00
10:53 AM,66.0,52.0,60,30.21,7.0,Calm,Calm,-,N/A,,Clear,0,2012-11-20 15:53:00
11:53 AM,69.1,53.1,57,30.17,7.0,Variable,5.8,-,N/A,,Scattered Clouds,0,2012-11-20 16:53:00
12:53 PM,69.1,51.1,53,30.15,10.0,NNW,6.9,-,N/A,,Scattered Clouds,330,2012-11-20 17:53:00
1:53 PM,70.0,48.9,47,30.12,10.0,NNW,4.6,-,N/A,,Mostly Cloudy,340,2012-11-20 18:53:00
2:53 PM,69.1,51.1,53,30.11,10.0,NNW,5.8,-,N/A,,Mostly Cloudy,330,2012-11-20 19:53:00
3:53 PM,69.1,50.0,51,30.10,10.0,NNW,4.6,-,N/A,,Partly Cloudy,330,2012-11-20 20:53:00
4:53 PM,68.0,54.0,61,30.11,10.0,NNW,8.1,-,N/A,,Partly Cloudy,330,2012-11-20 21:53:00
5:53 PM,64.0,54.0,70,30.12,10.0,NNW,5.8,-,N/A,,Scattered Clouds,330,2012-11-20 22:53:00
6:53 PM,62.1,54.0,75,30.12,10.0,NNW,4.6,-,N/A,,Mostly Cloudy,330,2012-11-20 23:53:00
7:53 PM,59.0,54.0,83,30.14,10.0,NW,6.9,-,0.00,,Mostly Cloudy,320,2012-11-21 00:53:00
8:53 PM,57.9,54.0,87,30.15,10.0,WNW,4.6,-,N/A,,Mostly Cloudy,300,2012-11-21 01:53:00
9:53 PM,55.9,53.1,90,30.15,10.0,NNW,3.5,-,N/A,,Partly Cloudy,330,2012-11-21 02:53:00
10:53 PM,53.1,51.1,93,30.15,9.0,Calm,Calm,-,N/A,,Clear,0,2012-11-21 03:53:00
11:53 PM,54.0,52.0,93,30.15,10.0,NW,4.6,-,N/A,,Overcast,310,2012-11-21 04:53:00